Time,TemperatureF,DewpointF,PressureIn,WindDirection,WindDirectionDegrees,WindSpeedMPH,WindSpeedGustMPH,Humidity,HourlyPrecipIn,Conditions,Clouds,dailyrainin,SoftwareType,DateUTC
2013-04-06 00:12:00,56.2,48.0,30.01,SSE,167,4.0,8.0,74,0.00,,,0.00,weatherlink.com 1.10,2013-04-06 05:12:00,
2013-04-06 00:27:00,56.3,48.0,30.00,South,176,5.0,9.0,74,0.00,,,0.00,weatherlink.com 1.10,2013-04-06 05:27:00,
2013-04-06 00:42:00,56.3,48.0,29.99,SE,141,3.0,10.0,75,0.00,,,0.00,weatherlink.com 1.10,2013-04-06 05:42:00,
2013-04-06 00:57:00,56.3,48.0,29.99,SSE,148,4.0,13.0,75,0.00,,,0.00,weatherlink.com 1.10,2013-04-06 05:57:00,
2013-04-06 01:12:00,56.2,48.0,29.98,SE,141,0.0,10.0,75,0.00,,,0.00,weatherlink.com 1.10,2013-04-06 06:12:00,
2013-04-06 01:27:00,56.2,48.0,29.98,SSE,163,4.0,12.0,74,0.00,,,0.00,weatherlink.com 1.10,2013-04-06 06:27:00,
2013-04-06 01:42:00,56.2,48.0,29.97,ESE,114,4.0,11.0,74,0.00,,,0.00,weatherlink.com 1.10,2013-04-06 06:42:00,
2013-04-06 01:57:00,56.4,48.0,29.96,ESE,110,7.0,13.0,74,0.00,,,0.00,weatherlink.com 1.10,2013-04-06 06:57:00,
2013-04-06 02:12:00,56.6,48.0,29.96,South,184,5.0,11.0,73,0.00,,,0.00,weatherlink.com 1.10,2013-04-06 07:12:00,
2013-04-06 02:27:00,56.6,48.0,29.95,SE,131,1.0,12.0,73,0.00,,,0.00,weatherlink.com 1.10,2013-04-06 07:27:00,
2013-04-06 02:42:00,56.6,48.0,29.95,SE,141,8.0,12.0,73,0.00,,,0.00,weatherlink.com 1.10,2013-04-06 07:42:00,
2013-04-06 02:57:00,56.6,48.0,29.94,SE,132,8.0,13.0,73,0.00,,,0.00,weatherlink.com 1.10,2013-04-06 07:57:00,
2013-04-06 03:12:00,56.5,48.0,29.94,SE,132,9.0,11.0,73,0.00,,,0.00,weatherlink.com 1.10,2013-04-06 08:12:00,
2013-04-06 03:27:00,56.5,48.0,29.94,South,170,7.0,13.0,74,0.00,,,0.00,weatherlink.com 1.10,2013-04-06 08:27:00,
2013-04-06 03:43:00,56.1,48.0,29.93,SE,141,8.0,12.0,74,0.00,,,0.00,weatherlink.com 1.10,2013-04-06 08:43:00,
2013-04-06 03:58:00,56.0,48.0,29.92,SE,129,2.0,14.0,75,0.00,,,0.00,weatherlink.com 1.10,2013-04-06 08:58:00,
2013-04-06 04:13:00,55.9,48.0,29.93,SSW,198,6.0,10.0,75,0.00,,,0.00,weatherlink.com 1.10,2013-04-06 09:13:00,
2013-04-06 04:28:00,55.7,48.0,29.92,East,88,5.0,10.0,75,0.00,,,0.00,weatherlink.com 1.10,2013-04-06 09:28:00,
2013-04-06 04:43:00,55.5,48.0,29.93,SW,235,1.0,9.0,75,0.00,,,0.00,weatherlink.com 1.10,2013-04-06 09:43:00,
2013-04-06 04:58:00,55.4,48.0,29.93,SSE,166,2.0,10.0,76,0.00,,,0.00,weatherlink.com 1.10,2013-04-06 09:58:00,
2013-04-06 05:13:00,55.5,48.0,29.92,SE,141,7.0,11.0,76,0.00,,,0.00,weatherlink.com 1.10,2013-04-06 10:13:00,
2013-04-06 05:28:00,55.4,48.0,29.93,SW,217,1.0,9.0,76,0.00,,,0.00,weatherlink.com 1.10,2013-04-06 10:28:00,
2013-04-06 05:43:00,55.6,48.0,29.92,SE,127,4.0,11.0,76,0.00,,,0.00,weatherlink.com 1.10,2013-04-06 10:43:00,
2013-04-06 05:58:00,55.5,48.0,29.91,South,172,7.0,13.0,76,0.00,,,0.00,weatherlink.com 1.10,2013-04-06 10:58:00,
2013-04-06 06:13:00,55.0,48.0,29.89,SE,135,6.0,13.0,76,0.00,,,0.00,weatherlink.com 1.10,2013-04-06 11:13:00,
2013-04-06 06:28:00,-999.0,-99.9,29.90,North,-999,-999.0,-999.0,-999,0.00,,,0.00,weatherlink.com 1.10,2013-04-06 11:28:00,
2013-04-06 06:43:00,-999.0,-99.9,29.90,North,-999,-999.0,-999.0,-999,0.00,,,0.00,weatherlink.com 1.10,2013-04-06 11:43:00,
2013-04-06 06:58:00,-999.0,-99.9,29.90,North,-999,-999.0,-999.0,-999,0.00,,,0.00,weatherlink.com 1.10,2013-04-06 11:58:00,
2013-04-06 07:13:00,-999.0,-99.9,29.90,North,-999,-999.0,-999.0,-999,0.00,,,0.00,weatherlink.com 1.10,2013-04-06 12:13:00,
2013-04-06 07:28:00,-999.0,-99.9,29.90,North,-999,-999.0,-999.0,-999,0.00,,,0.00,weatherlink.com 1.10,2013-04-06 12:28:00,
2013-04-06 07:43:00,-999.0,-99.9,29.90,North,-999,-999.0,-999.0,-999,0.00,,,0.00,weatherlink.com 1.10,2013-04-06 12:43:00,
2013-04-06 07:58:00,55.5,48.0,29.90,South,176,9.0,16.0,77,0.00,,,0.00,weatherlink.com 1.10,2013-04-06 12:58:00,
2013-04-06 08:13:00,56.4,49.0,29.90,SSE,160,9.0,17.0,76,0.00,,,0.00,weatherlink.com 1.10,2013-04-06 13:13:00,
2013-04-06 08:28:00,57.3,49.0,29.92,SSE,148,9.0,15.0,74,0.00,,,0.00,weatherlink.com 1.10,2013-04-06 13:28:00,
2013-04-06 08:43:00,58.4,49.0,29.92,SSE,148,6.0,17.0,72,0.00,,,0.00,weatherlink.com 1.10,2013-04-06 13:43:00,
2013-04-06 08:58:00,59.4,50.0,29.92,ENE,74,8.0,16.0,70,0.00,,,0.00,weatherlink.com 1.10,2013-04-06 13:58:00,
2013-04-06 09:13:00,60.4,50.0,29.92,South,170,7.0,18.0,68,0.00,,,0.00,weatherlink.com 1.10,2013-04-06 14:13:00,
2013-04-06 09:28:00,61.6,50.0,29.92,WSW,256,4.0,15.0,65,0.00,,,0.00,weatherlink.com 1.10,2013-04-06 14:28:00,
2013-04-06 09:43:00,62.7,49.0,29.92,SSE,165,7.0,17.0,62,0.00,,,0.00,weatherlink.com 1.10,2013-04-06 14:43:00,
2013-04-06 09:58:00,63.8,50.0,29.92,WSW,243,6.0,17.0,61,0.00,,,0.00,weatherlink.com 1.10,2013-04-06 14:58:00,
2013-04-06 10:13:00,65.0,49.0,29.91,SW,219,10.0,16.0,56,0.00,,,0.00,weatherlink.com 1.10,2013-04-06 15:13:00,
2013-04-06 10:28:00,65.8,49.0,29.91,SE,128,6.0,16.0,54,0.00,,,0.00,weatherlink.com 1.10,2013-04-06 15:28:00,
2013-04-06 10:43:00,66.4,48.0,29.91,WSW,249,11.0,18.0,52,0.00,,,0.00,weatherlink.com 1.10,2013-04-06 15:43:00,
2013-04-06 10:58:00,67.2,48.0,29.91,SW,232,11.0,20.0,51,0.00,,,0.00,weatherlink.com 1.10,2013-04-06 15:58:00,
2013-04-06 11:13:00,67.4,48.0,29.91,SW,226,14.0,19.0,51,0.00,,,0.00,weatherlink.com 1.10,2013-04-06 16:13:00,
2013-04-06 11:28:00,68.9,49.0,29.90,South,176,7.0,20.0,49,0.00,,,0.00,weatherlink.com 1.10,2013-04-06 16:28:00,
2013-04-06 11:43:00,69.8,50.0,29.90,SE,131,10.0,16.0,49,0.00,,,0.00,weatherlink.com 1.10,2013-04-06 16:43:00,
2013-04-06 12:13:00,70.6,49.0,29.90,SW,234,14.0,17.0,47,0.00,,,0.00,weatherlink.com 1.10,2013-04-06 17:13:00,
2013-04-06 12:28:00,71.3,49.0,29.89,SW,215,6.0,18.0,46,0.00,,,0.00,weatherlink.com 1.10,2013-04-06 17:28:00,
2013-04-06 12:43:00,71.6,50.0,29.88,WSW,242,6.0,14.0,47,0.00,,,0.00,weatherlink.com 1.10,2013-04-06 17:43:00,
2013-04-06 12:58:00,72.6,51.0,29.88,West,262,8.0,20.0,46,0.00,,,0.00,weatherlink.com 1.10,2013-04-06 17:58:00,
2013-04-06 13:13:00,73.1,50.0,29.88,South,186,4.0,18.0,44,0.00,,,0.00,weatherlink.com 1.10,2013-04-06 18:13:00,
2013-04-06 13:58:00,74.9,51.0,29.86,SW,233,6.0,12.0,44,0.00,,,0.00,weatherlink.com 1.10,2013-04-06 18:58:00,
2013-04-06 14:13:00,74.7,51.0,29.85,WSW,249,3.0,15.0,43,0.00,,,0.00,weatherlink.com 1.10,2013-04-06 19:13:00,
2013-04-06 14:29:00,75.5,51.0,29.84,SSW,193,2.0,13.0,43,0.00,,,0.00,weatherlink.com 1.10,2013-04-06 19:29:00,
2013-04-06 14:58:00,75.9,53.0,29.83,SSW,212,3.0,15.0,45,0.00,,,0.00,weatherlink.com 1.10,2013-04-06 19:58:00,
2013-04-06 15:29:00,76.9,53.0,29.82,WSW,258,7.0,12.0,43,0.00,,,0.00,weatherlink.com 1.10,2013-04-06 20:29:00,
2013-04-06 15:45:00,76.9,53.0,29.82,SSE,162,3.0,10.0,43,0.00,,,0.00,weatherlink.com 1.10,2013-04-06 20:45:00,
2013-04-06 15:59:00,76.5,52.0,29.81,SSW,211,5.0,14.0,43,0.00,,,0.00,weatherlink.com 1.10,2013-04-06 20:59:00,
2013-04-06 16:29:00,76.7,52.0,29.81,SSW,208,1.0,9.0,43,0.00,,,0.00,weatherlink.com 1.10,2013-04-06 21:29:00,
2013-04-06 16:44:00,76.3,55.0,29.81,SSE,153,9.0,12.0,47,0.00,,,0.00,weatherlink.com 1.10,2013-04-06 21:44:00,
2013-04-06 16:59:00,76.9,54.0,29.80,SE,140,4.0,10.0,46,0.00,,,0.00,weatherlink.com 1.10,2013-04-06 21:59:00,
2013-04-06 17:29:00,75.4,55.0,29.81,SE,146,1.0,12.0,49,0.00,,,0.00,weatherlink.com 1.10,2013-04-06 22:29:00,
2013-04-06 17:44:00,75.1,56.0,29.81,SW,222,4.0,14.0,51,0.00,,,0.00,weatherlink.com 1.10,2013-04-06 22:44:00,
2013-04-06 18:29:00,73.7,56.0,29.81,ESE,120,6.0,11.0,55,0.00,,,0.00,weatherlink.com 1.10,2013-04-06 23:29:00,
2013-04-06 18:44:00,73.1,56.0,29.82,ESE,117,5.0,9.0,56,0.00,,,0.00,weatherlink.com 1.10,2013-04-06 23:44:00,
2013-04-06 18:59:00,72.5,56.0,29.82,SE,132,7.0,9.0,57,0.00,,,0.00,weatherlink.com 1.10,2013-04-06 23:59:00,
2013-04-06 19:14:00,71.7,56.0,29.81,SSE,149,2.0,8.0,59,0.00,,,0.00,weatherlink.com 1.10,2013-04-07 00:14:00,
2013-04-06 19:44:00,70.1,57.0,29.82,SE,133,5.0,8.0,63,0.00,,,0.00,weatherlink.com 1.10,2013-04-07 00:44:00,
2013-04-06 19:59:00,69.2,56.0,29.82,SSE,149,3.0,6.0,64,0.00,,,0.00,weatherlink.com 1.10,2013-04-07 00:59:00,
2013-04-06 20:29:00,67.4,56.0,29.83,SE,135,0.0,4.0,68,0.00,,,0.00,weatherlink.com 1.10,2013-04-07 01:29:00,
2013-04-06 20:44:00,66.6,56.0,29.83,SE,132,0.0,4.0,69,0.00,,,0.00,weatherlink.com 1.10,2013-04-07 01:44:00,
2013-04-06 20:59:00,65.9,56.0,29.83,East,101,0.0,3.0,71,0.00,,,0.00,weatherlink.com 1.10,2013-04-07 01:59:00,
2013-04-06 21:14:00,65.6,56.0,29.83,SSE,160,0.0,7.0,72,0.00,,,0.00,weatherlink.com 1.10,2013-04-07 02:14:00,
2013-04-06 21:29:00,65.6,57.0,29.84,SE,140,2.0,6.0,73,0.00,,,0.00,weatherlink.com 1.10,2013-04-07 02:29:00,
2013-04-06 21:59:00,64.8,57.0,29.85,SE,141,4.0,5.0,75,0.00,,,0.00,weatherlink.com 1.10,2013-04-07 02:59:00,
2013-04-06 22:14:00,64.8,57.0,29.85,SE,139,4.0,7.0,75,0.00,,,0.00,weatherlink.com 1.10,2013-04-07 03:14:00,
2013-04-06 22:29:00,64.5,56.0,29.85,SSE,155,1.0,6.0,75,0.00,,,0.00,weatherlink.com 1.10,2013-04-07 03:29:00,
2013-04-06 22:44:00,63.8,56.0,29.86,SSE,164,2.0,5.0,77,0.00,,,0.00,weatherlink.com 1.10,2013-04-07 03:44:00,
2013-04-06 22:59:00,63.3,56.0,29.85,East,90,3.0,6.0,78,0.00,,,0.00,weatherlink.com 1.10,2013-04-07 03:59:00,
2013-04-06 23:14:00,63.0,57.0,29.85,SSE,157,3.0,6.0,80,0.00,,,0.00,weatherlink.com 1.10,2013-04-07 04:14:00,
2013-04-06 23:29:00,63.1,57.0,29.85,SSE,149,0.0,8.0,80,0.00,,,0.00,weatherlink.com 1.10,2013-04-07 04:29:00,
2013-04-06 23:59:00,63.0,57.0,29.85,SSE,152,1.0,8.0,81,0.00,,,0.00,weatherlink.com 1.10,2013-04-07 04:59:00,